DELTA 1 DEB, 12535

Orbit data source: Space-Track

DELTA 1 DEB, 12535 is space debris in LEO originally from a launch on Thu, 29 Jul 1976 UTC launched from the Air Force Western Test Range (AFWTR). Debris objects in space refer to the collection of defunct objects orbiting the Earth. Examples of debris include non-operational satellites, rocket bodies, and fragments generated from explosions, collisions, or faulty payload assembly.

Loading next visibility...
Identifier
12535, 1976-077DQ
Orbit
LEO
Country
Flag of USUS
Related business
Manufacturer
Unknown
Mission
Spacecraft
Bus & Motor
Unknown
Mass
Unknown
Launch date (UTC)
1976-07-29 (50 years ago)
Launch vehicle
Unknown
Launch site
Air Force Western Test Range (AFWTR)
Object type
Payload
Rocket body
Debris
Shape & HBR
Unknown shape, 0.1 m
Radar Cross Section
Medium (>0.1 m² and <1 m²)

Expand to show TLE details & history
Last TLE update: 1 day ago

TLE from 1 day ago
0 DELTA 1 DEB
1 12535U 76077DQ  26255.29217223  .00000063  00000-0  15058-2 0  9991
2 12535 102.3345 188.3100 0402874  47.3744 102.9083 11.66375430 72807
Epoch: 2026-09-12T07:00Z
TLE epoch observation values (Epoch: 2026-09-12T07:00:43.680Z)
Latitude
24.67479°
Longitude
-82.43662°
Altitude
1,923.996 km
Speed
6.896 km/s
True Right ascension
00h 56m 11s
True Declination
24° 33' 46"
Sunlit
Object was in full shadow at epoch
Visualization orbit readout
Latitude
Unknown
Longitude
Unknown
Altitude
Unknown
Speed
Unknown
Apparent Right ascension
Unknown
Apparent Declination
Unknown
Sunlit
N/A
Visualization observer readout
Local Sidereal Time
03:06:31
Azimuth
Unknown
Elevation
Unknown
Doppler factor
Unknown
Orbital elements
Apogee altitude
2,163.489 km
Perigee altitude
1,501.903 km
Semi-major axis
8,210.833 km
Eccentricity
0.04029
Inclination
102.3345°
RAAN
188.31°
Arg. of periapsis
47.3744°
True anomaly
107.35369°
Mean anomaly
102.9083°
Eccentric anomaly
105.13651°
Mean motion
2.91717 °/min
Orbital period
123.41 mins
BSTAR
0.0015058
Loading maneuver chart data...
Computing Atmospheric mass density...
Loading historical data...
Loading historical data...
Loading historical data...
Loading historical data...
Loading historical data...
Loading historical data...
Loading historical data...

Documentation

Showing up to 5 results
|